Time,TemperatureF,DewpointF,PressureIn,WindDirection,WindDirectionDegrees,WindSpeedMPH,WindSpeedGustMPH,Humidity,HourlyPrecipIn,Conditions,Clouds,dailyrainin,SoftwareType,DateUTC
2013-09-02 00:00:00,72.2,65.7,29.36,SE,135,0.0,0.0,80,0.00,,,0.00,WUHU216HW,2013-09-02 04:00:00,
2013-09-02 00:01:00,72.2,65.7,29.36,SE,135,0.0,0.0,80,0.00,,,0.00,WUHU216HW,2013-09-02 04:01:00,
2013-09-02 00:02:00,72.2,65.7,29.36,SE,135,0.0,0.0,80,0.00,,,0.00,WUHU216HW,2013-09-02 04:02:00,
2013-09-02 00:07:00,72.2,65.7,29.36,SE,135,0.0,0.0,80,0.00,,,0.00,WUHU216HW,2013-09-02 04:07:00,
2013-09-02 00:30:00,71.8,65.7,29.36,SSE,158,0.0,0.0,81,0.00,,,0.00,WUHU216HW,2013-09-02 04:30:00,
2013-09-02 00:35:00,71.8,65.7,29.36,SSE,158,0.0,0.0,81,0.00,,,0.00,WUHU216HW,2013-09-02 04:35:00,
2013-09-02 01:00:00,71.5,65.7,29.36,SSE,158,0.2,0.2,82,0.00,,,0.00,WUHU216HW,2013-09-02 05:00:00,
2013-09-02 01:05:00,71.5,65.7,29.36,SSE,158,0.2,0.2,82,0.00,,,0.00,WUHU216HW,2013-09-02 05:05:00,
2013-09-02 01:30:00,70.7,65.6,29.37,SSE,158,1.3,1.3,84,0.00,,,0.00,WUHU216HW,2013-09-02 05:30:00,
2013-09-02 01:35:00,70.7,65.6,29.37,SSE,158,1.3,1.3,84,0.00,,,0.00,WUHU216HW,2013-09-02 05:35:00,
2013-09-02 02:00:00,70.7,66.0,29.36,SSW,203,0.0,0.0,85,0.00,,,0.00,WUHU216HW,2013-09-02 06:00:00,
2013-09-02 02:05:00,70.7,66.0,29.36,SSW,203,0.0,0.0,85,0.00,,,0.00,WUHU216HW,2013-09-02 06:05:00,
2013-09-02 02:30:00,70.7,66.3,29.36,SSE,158,0.7,0.7,86,0.00,,,0.00,WUHU216HW,2013-09-02 06:30:00,
2013-09-02 02:35:00,70.7,66.3,29.36,SSE,158,0.7,0.7,86,0.00,,,0.00,WUHU216HW,2013-09-02 06:35:00,
2013-09-02 03:00:00,70.6,66.2,29.35,ESE,113,1.1,1.1,86,0.00,,,0.00,WUHU216HW,2013-09-02 07:00:00,
2013-09-02 03:05:00,70.6,66.2,29.35,ESE,113,1.1,1.1,86,0.00,,,0.00,WUHU216HW,2013-09-02 07:05:00,
2013-09-02 03:30:00,70.4,66.0,29.33,ESE,113,0.0,0.0,86,0.00,,,0.00,WUHU216HW,2013-09-02 07:30:00,
2013-09-02 03:35:00,70.4,66.0,29.33,ESE,113,0.0,0.0,86,0.00,,,0.00,WUHU216HW,2013-09-02 07:35:00,
2013-09-02 04:00:00,70.2,65.8,29.34,ESE,113,0.0,0.0,86,0.00,,,0.00,WUHU216HW,2013-09-02 08:00:00,
2013-09-02 04:05:00,70.2,65.8,29.34,ESE,113,0.0,0.0,86,0.00,,,0.00,WUHU216HW,2013-09-02 08:05:00,
2013-09-02 04:30:00,70.2,66.2,29.34,ESE,113,0.0,0.0,87,0.00,,,0.00,WUHU216HW,2013-09-02 08:30:00,
2013-09-02 04:35:00,70.2,66.2,29.34,ESE,113,0.0,0.0,87,0.00,,,0.00,WUHU216HW,2013-09-02 08:35:00,
2013-09-02 05:00:00,70.0,66.0,29.34,ESE,113,0.0,0.0,87,0.00,,,0.00,WUHU216HW,2013-09-02 09:00:00,
2013-09-02 05:05:00,70.0,66.0,29.34,ESE,113,0.0,0.0,87,0.00,,,0.00,WUHU216HW,2013-09-02 09:05:00,
2013-09-02 05:30:00,70.0,66.2,29.35,ESE,113,0.0,0.0,88,0.00,,,0.00,WUHU216HW,2013-09-02 09:30:00,
2013-09-02 05:35:00,70.0,66.2,29.35,ESE,113,0.0,0.0,88,0.00,,,0.00,WUHU216HW,2013-09-02 09:35:00,
2013-09-02 06:00:00,69.7,65.9,29.34,ESE,113,0.0,0.0,88,0.00,,,0.00,WUHU216HW,2013-09-02 10:00:00,
2013-09-02 06:05:00,69.7,65.9,29.34,ESE,113,0.0,0.0,88,0.00,,,0.00,WUHU216HW,2013-09-02 10:05:00,
2013-09-02 06:30:00,69.5,65.7,29.35,ESE,113,0.0,0.0,88,0.00,,,0.00,WUHU216HW,2013-09-02 10:30:00,
2013-09-02 06:35:00,69.5,65.7,29.35,ESE,113,0.0,0.0,88,0.00,,,0.00,WUHU216HW,2013-09-02 10:35:00,
2013-09-02 07:00:00,69.5,66.1,29.36,WNW,293,1.3,1.3,89,0.00,,,0.00,WUHU216HW,2013-09-02 11:00:00,
2013-09-02 07:05:00,69.5,66.1,29.36,WNW,293,1.3,1.3,89,0.00,,,0.00,WUHU216HW,2013-09-02 11:05:00,
2013-09-02 07:30:00,70.2,66.8,29.36,West,270,0.0,0.0,89,0.00,,,0.00,WUHU216HW,2013-09-02 11:30:00,
2013-09-02 07:35:00,70.2,66.8,29.36,West,270,0.0,0.0,89,0.00,,,0.00,WUHU216HW,2013-09-02 11:35:00,
2013-09-02 08:00:00,70.7,67.0,29.36,West,270,0.0,0.0,88,0.00,,,0.00,WUHU216HW,2013-09-02 12:00:00,
2013-09-02 08:05:00,70.7,67.0,29.36,West,270,0.0,0.0,88,0.00,,,0.00,WUHU216HW,2013-09-02 12:05:00,
2013-09-02 08:30:00,71.8,68.0,29.37,SSW,203,0.0,0.0,88,0.00,,,0.00,WUHU216HW,2013-09-02 12:30:00,
2013-09-02 08:35:00,71.8,68.0,29.37,SSW,203,0.0,0.0,88,0.00,,,0.00,WUHU216HW,2013-09-02 12:35:00,
2013-09-02 09:00:00,74.3,69.9,29.37,West,270,2.5,2.5,86,0.00,,,0.00,WUHU216HW,2013-09-02 13:00:00,
2013-09-02 09:05:00,74.3,69.9,29.37,West,270,2.5,2.5,86,0.00,,,0.00,WUHU216HW,2013-09-02 13:05:00,
2013-09-02 09:30:00,77.2,70.9,29.37,WNW,293,3.8,3.8,81,0.00,,,0.00,WUHU216HW,2013-09-02 13:30:00,
2013-09-02 09:35:00,77.2,70.9,29.37,WNW,293,3.8,3.8,81,0.00,,,0.00,WUHU216HW,2013-09-02 13:35:00,
2013-09-02 10:00:00,79.6,71.3,29.38,WNW,293,3.4,3.4,76,0.00,,,0.00,WUHU216HW,2013-09-02 14:00:00,
2013-09-02 10:05:00,79.6,71.3,29.38,WNW,293,3.4,3.4,76,0.00,,,0.00,WUHU216HW,2013-09-02 14:05:00,
2013-09-02 10:30:00,80.3,70.8,29.37,West,270,2.9,2.9,73,0.00,,,0.00,WUHU216HW,2013-09-02 14:30:00,
2013-09-02 10:35:00,80.3,70.8,29.37,West,270,2.9,2.9,73,0.00,,,0.00,WUHU216HW,2013-09-02 14:35:00,
2013-09-02 11:00:00,82.1,72.2,29.38,WNW,293,3.4,3.4,72,0.00,,,0.00,WUHU216HW,2013-09-02 15:00:00,
2013-09-02 11:05:00,82.1,72.2,29.38,WNW,293,3.4,3.4,72,0.00,,,0.00,WUHU216HW,2013-09-02 15:05:00,
2013-09-02 11:30:00,83.9,72.6,29.38,WNW,293,3.6,3.6,69,0.00,,,0.00,WUHU216HW,2013-09-02 15:30:00,
2013-09-02 11:35:00,83.9,72.6,29.38,WNW,293,3.6,3.6,69,0.00,,,0.00,WUHU216HW,2013-09-02 15:35:00,
2013-09-02 12:00:00,83.7,71.6,29.37,West,270,3.4,3.4,67,0.00,,,0.00,WUHU216HW,2013-09-02 16:00:00,
2013-09-02 12:05:00,83.7,71.6,29.37,West,270,3.4,3.4,67,0.00,,,0.00,WUHU216HW,2013-09-02 16:05:00,
2013-09-02 12:30:00,85.3,71.7,29.36,West,270,3.1,3.1,64,0.00,,,0.00,WUHU216HW,2013-09-02 16:30:00,
2013-09-02 12:35:00,85.3,71.7,29.36,West,270,3.1,3.1,64,0.00,,,0.00,WUHU216HW,2013-09-02 16:35:00,
2013-09-02 13:00:00,86.6,72.0,29.36,WNW,293,0.7,0.7,62,0.00,,,0.00,WUHU216HW,2013-09-02 17:00:00,
2013-09-02 13:05:00,86.6,72.0,29.36,WNW,293,0.7,0.7,62,0.00,,,0.00,WUHU216HW,2013-09-02 17:05:00,
2013-09-02 13:30:00,86.9,72.4,29.36,NE,45,1.8,1.8,62,0.00,,,0.00,WUHU216HW,2013-09-02 17:30:00,
2013-09-02 13:35:00,86.9,72.4,29.36,NE,45,1.8,1.8,62,0.00,,,0.00,WUHU216HW,2013-09-02 17:35:00,
2013-09-02 14:00:00,88.6,71.9,29.34,WNW,293,5.4,5.4,58,0.00,,,0.00,WUHU216HW,2013-09-02 18:00:00,
2013-09-02 14:05:00,88.6,71.9,29.34,WNW,293,5.4,5.4,58,0.00,,,0.00,WUHU216HW,2013-09-02 18:05:00,
2013-09-02 14:30:00,88.4,70.7,29.33,West,270,2.9,2.9,56,0.00,,,0.00,WUHU216HW,2013-09-02 18:30:00,
2013-09-02 14:35:00,88.4,70.7,29.33,West,270,2.9,2.9,56,0.00,,,0.00,WUHU216HW,2013-09-02 18:35:00,
2013-09-02 15:00:00,90.0,71.7,29.32,North,0,3.1,3.1,55,0.00,,,0.00,WUHU216HW,2013-09-02 19:00:00,
2013-09-02 15:05:00,90.0,71.7,29.32,North,0,3.1,3.1,55,0.00,,,0.00,WUHU216HW,2013-09-02 19:05:00,
2013-09-02 15:30:00,90.2,70.1,29.31,North,0,3.4,3.4,52,0.00,,,0.00,WUHU216HW,2013-09-02 19:30:00,
2013-09-02 15:35:00,90.2,70.1,29.31,North,0,3.4,3.4,52,0.00,,,0.00,WUHU216HW,2013-09-02 19:35:00,
2013-09-02 16:00:00,92.9,70.8,29.30,SSW,203,0.7,0.7,49,0.00,,,0.00,WUHU216HW,2013-09-02 20:00:00,
2013-09-02 16:05:00,92.9,70.8,29.30,SSW,203,0.7,0.7,49,0.00,,,0.00,WUHU216HW,2013-09-02 20:05:00,
2013-09-02 16:30:00,92.9,70.2,29.30,West,270,4.7,4.7,48,0.00,,,0.00,WUHU216HW,2013-09-02 20:30:00,
2013-09-02 16:35:00,92.9,70.2,29.30,West,270,4.7,4.7,48,0.00,,,0.00,WUHU216HW,2013-09-02 20:35:00,
2013-09-02 17:00:00,91.6,70.4,29.30,South,180,5.6,5.6,50,0.00,,,0.00,WUHU216HW,2013-09-02 21:00:00,
2013-09-02 17:05:00,91.6,70.4,29.30,South,180,5.6,5.6,50,0.00,,,0.00,WUHU216HW,2013-09-02 21:05:00,
2013-09-02 17:30:00,89.6,69.7,29.29,West,270,3.4,3.4,52,0.00,,,0.00,WUHU216HW,2013-09-02 21:30:00,
2013-09-02 17:35:00,89.6,69.7,29.29,West,270,3.4,3.4,52,0.00,,,0.00,WUHU216HW,2013-09-02 21:35:00,
2013-09-02 18:00:00,88.6,70.3,29.29,West,270,2.0,2.0,55,0.00,,,0.00,WUHU216HW,2013-09-02 22:00:00,
2013-09-02 18:05:00,88.6,70.3,29.29,West,270,2.0,2.0,55,0.00,,,0.00,WUHU216HW,2013-09-02 22:05:00,
2013-09-02 18:30:00,89.3,70.9,29.29,WNW,293,0.7,0.7,55,0.00,,,0.00,WUHU216HW,2013-09-02 22:30:00,
2013-09-02 18:35:00,89.3,70.9,29.29,WNW,293,0.7,0.7,55,0.00,,,0.00,WUHU216HW,2013-09-02 22:35:00,
2013-09-02 19:00:00,86.8,70.7,29.30,West,270,0.0,0.0,59,0.00,,,0.00,WUHU216HW,2013-09-02 23:00:00,
2013-09-02 19:05:00,86.8,70.7,29.30,West,270,0.0,0.0,59,0.00,,,0.00,WUHU216HW,2013-09-02 23:05:00,
2013-09-02 19:30:00,83.5,70.0,29.29,West,270,0.0,0.0,64,0.00,,,0.00,WUHU216HW,2013-09-02 23:30:00,
2013-09-02 19:35:00,83.5,70.0,29.29,West,270,0.0,0.0,64,0.00,,,0.00,WUHU216HW,2013-09-02 23:35:00,
2013-09-02 20:00:00,82.1,69.5,29.29,West,270,0.0,0.0,66,0.00,,,0.00,WUHU216HW,2013-09-03 00:00:00,
2013-09-02 20:05:00,82.1,69.5,29.29,West,270,0.0,0.0,66,0.00,,,0.00,WUHU216HW,2013-09-03 00:05:00,
2013-09-02 20:30:00,80.3,68.8,29.30,SW,225,0.7,0.7,68,0.00,,,0.00,WUHU216HW,2013-09-03 00:30:00,
2013-09-02 20:35:00,80.3,68.8,29.30,SW,225,0.7,0.7,68,0.00,,,0.00,WUHU216HW,2013-09-03 00:35:00,
2013-09-02 21:00:00,78.5,68.7,29.31,West,270,0.4,0.4,72,0.00,,,0.00,WUHU216HW,2013-09-03 01:00:00,
2013-09-02 21:05:00,78.5,68.7,29.31,West,270,0.4,0.4,72,0.00,,,0.00,WUHU216HW,2013-09-03 01:05:00,
2013-09-02 21:30:00,77.0,68.5,29.33,West,270,0.7,0.7,75,0.00,,,0.00,WUHU216HW,2013-09-03 01:30:00,
2013-09-02 21:35:00,77.0,68.5,29.33,West,270,0.7,0.7,75,0.00,,,0.00,WUHU216HW,2013-09-03 01:35:00,
2013-09-02 22:00:00,76.0,67.9,29.33,West,270,0.4,0.4,76,0.00,,,0.00,WUHU216HW,2013-09-03 02:00:00,
2013-09-02 22:05:00,76.0,67.9,29.33,West,270,0.4,0.4,76,0.00,,,0.00,WUHU216HW,2013-09-03 02:05:00,
2013-09-02 22:30:00,74.9,67.6,29.33,SSE,158,1.1,1.1,78,0.00,,,0.00,WUHU216HW,2013-09-03 02:30:00,
2013-09-02 22:35:00,74.9,67.6,29.33,SSE,158,1.1,1.1,78,0.00,,,0.00,WUHU216HW,2013-09-03 02:35:00,
2013-09-02 23:00:00,73.8,67.7,29.34,SSE,158,0.0,0.0,81,0.00,,,0.00,WUHU216HW,2013-09-03 03:00:00,
2013-09-02 23:05:00,73.8,67.7,29.34,SSE,158,0.0,0.0,81,0.00,,,0.00,WUHU216HW,2013-09-03 03:05:00,
2013-09-02 23:30:00,72.9,67.4,29.34,SW,225,1.1,1.1,83,0.00,,,0.00,WUHU216HW,2013-09-03 03:30:00,
2013-09-02 23:35:00,72.9,67.4,29.34,SW,225,1.1,1.1,83,0.00,,,0.00,WUHU216HW,2013-09-03 03:35:00,